Weather History for KLAS - January, 2014

Change the Weather History Date:

Sunday, January 12, 2014

  Actual Average Record
Temperature  
Mean Temperature 54 °F 48 °F  
Max Temperature 64 °F 58 °F 71 °F (1980)
Min Temperature 44 °F 39 °F 14 °F (1963)
Degree Days  
Heating Degree Days 11 17  
Month to date heating degree days 177 206  
Since 1 July heating degree days 980 1053  
Cooling Degree Days 0 0  
Month to date cooling degree days 0 0  
Year to date cooling degree days 0 0  
Growing Degree Days 4 (Base 50)    
Moisture  
Dew Point 15 °F    
Average Humidity 32    
Maximum Humidity 53    
Minimum Humidity 11    
Precipitation  
Precipitation 0.00 in 0.02 in 0.65 in (1949)
Month to date precipitation 0.00 0.23  
Year to date precipitation 0.00 0.23  
Snow  
Snow 0.00 in 0.00 in 4.70 in (1949)
Month to date snowfall 0.0 0.0  
Since 1 July snowfall 0.0 0.2  
Snow Depth 0.00 in    
Sea Level Pressure  
Sea Level Pressure 30.11 in    
Wind  
Wind Speed 8 mph (NW)    
Max Wind Speed 26 mph    
Max Gust Speed 32 mph    
Visibility 10 miles    
Events      
T = Trace of Precipitation, MM = Missing Value Source: NWS Daily Summary

Daily Weather History Graph

Daily Weather History Graph

Search for Another Location

Airport or City:

Trip Planner

Search our weather history database for the weather conditions in past years. The results will help you decide how hot, cold, wet, or windy it might be!

Date:

Astronomy

Jan. 12, 2014 Rise Set
Actual Time 6:51 AM PST 4:47 PM PST
Civil Twilight 6:23 AM PST 5:15 PM PST
Nautical Twilight 5:51 AM PST 5:46 PM PST
Astronomical Twilight 5:20 AM PST 6:17 PM PST
Moon 2:17 PM PST (1/12) 3:54 AM PST (1/12)
Length of Visible Light 10h 51m
Length of Day
9h 55m
Waxing Gibbous, 90% of the Moon is Illuminated
Jan 12
Waxing Gibbous
Jan 15
Full
Jan 23
Last Quarter
Jan 30
New
Feb 6
First Quarter

Hourly Weather History & Observations

Time (PST) Temp. Windchill Dew Point Humidity Pressure Visibility Wind Dir Wind Speed Gust Speed Precip Events Conditions
12:56 AM 48.0 °F - 28.9 °F 48% 29.90 in 10.0 mi WSW 4.6 mph - N/A   Mostly Cloudy
1:56 AM 48.0 °F - 28.0 °F 46% 29.91 in 10.0 mi SSW 9.2 mph - N/A   Overcast
2:56 AM 45.0 °F 41.8 °F 28.0 °F 52% 29.92 in 10.0 mi SW 5.8 mph - N/A   Scattered Clouds
3:56 AM 45.0 °F 41.2 °F 28.0 °F 52% 29.94 in 10.0 mi WSW 6.9 mph - N/A   Partly Cloudy
4:56 AM 44.1 °F 42.5 °F 28.0 °F 53% 29.98 in 10.0 mi WSW 3.5 mph - N/A   Partly Cloudy
5:56 AM 50.0 °F - 27.0 °F 41% 30.01 in 10.0 mi SSE 8.1 mph - N/A   Partly Cloudy
6:38 AM 55.4 °F - 21.2 °F 26% 30.03 in 10.0 mi NNW 23.0 mph 32.2 mph N/A   Partly Cloudy
6:56 AM 57.0 °F - 17.1 °F 21% 30.02 in 10.0 mi NW 20.7 mph 31.1 mph N/A   Partly Cloudy
7:56 AM 57.0 °F - 14.0 °F 18% 30.06 in 10.0 mi NW 15.0 mph 25.3 mph N/A   Partly Cloudy
8:56 AM 57.9 °F - 12.0 °F 16% 30.09 in 10.0 mi NW 13.8 mph 24.2 mph N/A   Partly Cloudy
9:56 AM 61.0 °F - 10.9 °F 14% 30.11 in 10.0 mi NW 9.2 mph - N/A   Partly Cloudy
10:56 AM 62.1 °F - 12.0 °F 14% 30.12 in 10.0 mi North 17.3 mph - N/A   Partly Cloudy
11:56 AM 62.1 °F - 12.0 °F 14% 30.11 in 10.0 mi North 8.1 mph 20.7 mph N/A   Partly Cloudy
12:56 PM 63.0 °F - 10.9 °F 13% 30.09 in 10.0 mi North 11.5 mph - N/A   Scattered Clouds
1:56 PM 63.0 °F - 7.0 °F 11% 30.11 in 10.0 mi North 10.4 mph - N/A   Scattered Clouds
2:56 PM 63.0 °F - 7.0 °F 11% 30.14 in 10.0 mi NNE 8.1 mph 17.3 mph N/A   Partly Cloudy
3:56 PM 62.1 °F - 7.0 °F 11% 30.17 in 10.0 mi North 6.9 mph - N/A   Partly Cloudy
4:56 PM 59.0 °F - 8.1 °F 13% 30.19 in 10.0 mi ENE 3.5 mph - N/A   Clear
5:56 PM 57.9 °F - 8.1 °F 14% 30.21 in 10.0 mi Calm Calm - N/A   Clear
6:56 PM 54.0 °F - 10.0 °F 17% 30.22 in 10.0 mi South 6.9 mph - N/A   Clear
7:56 PM 52.0 °F - 10.9 °F 19% 30.25 in 10.0 mi South 8.1 mph - N/A   Clear
8:56 PM 51.1 °F - 10.9 °F 20% 30.28 in 10.0 mi NW 3.5 mph - N/A   Clear
9:56 PM 51.1 °F - 9.0 °F 18% 30.28 in 10.0 mi Calm Calm - N/A   Partly Cloudy
10:56 PM 48.9 °F - 10.0 °F 21% 30.30 in 10.0 mi South 11.5 mph - N/A   Partly Cloudy
11:56 PM 50.0 °F - 8.1 °F 18% 30.32 in 10.0 mi NE 6.9 mph - N/A   Partly Cloudy